Location: Black Forest
(43.4794°N, 75.0081°W)
Time: 05:21:51
(UTC-05:00)

ISS - Visible Passes

Search period start: 24 February 2017 00:00
Search period end: 06 March 2017 00:00
Orbit: 399 x 408 km, 51.6° (Epoch: 24 February)

Date Brightness Start Highest point End Pass type
(mag) Time Alt. Az. Time Alt. Az. Time Alt. Az.
01 Mar -1.5 06:05:43 10° SSW 06:08:43 33° SE 06:11:44 10° ENE visible
02 Mar -0.7 05:13:57 10° S 05:16:18 18° SE 05:18:39 10° E visible
03 Mar -3.1 05:56:34 10° SW 05:59:51 76° SE 06:03:09 10° ENE visible
04 Mar -2.2 05:05:27 20° SSW 05:07:17 40° SE 05:10:25 10° ENE visible
05 Mar -1.0 04:15:16 21° ESE 04:15:16 21° ESE 04:17:25 10° E visible
05 Mar -3.0 05:47:55 11° WSW 05:51:03 52° NNW 05:54:18 10° NE visible
